When you browse on this site, cookies collect data to enhance your experience and personalize the content and advertising you see.
Visit our Privacy Policy to learn more. By continuing to use the site, you agree to this use of cookies and data.
  • In Deutschland
  • Länderverzeichnis
  • Für 7 Tage
  • Wassertemperatur
  • Wetterkarte
  • Widgets
  • user-avatar
    Anmelden

    Stündliche Wetter Dalniy

    Heute, 20 Oktober, Sonntag

    Zeit Temperatur Niederschläge Wind Luftdruck Luftfeuchtigkeit
    00:00 -6°C° 0 mm 1 m/S 760 mmHg 79%
    01:00 -7°C° 0 mm 1 m/S 760 mmHg 80%
    02:00 -7°C° 0 mm 1 m/S 760 mmHg 81%
    03:00 -7°C° 0 mm 1 m/S 760 mmHg 82%
    04:00 -7°C° 0 mm 1 m/S 760 mmHg 84%
    05:00 -7°C° 0 mm 1 m/S 760 mmHg 84%
    06:00 -8°C° 0 mm 2 m/S 760 mmHg 85%
    07:00 -9°C° 0 mm 2 m/S 760 mmHg 85%
    08:00 -7°C° 0 mm 2 m/S 760 mmHg 78%
    09:00 -7°C° 0 mm 3 m/S 760 mmHg 71%
    10:00 -5°C° 0 mm 3 m/S 760 mmHg 64%
    11:00 -4°C° 0 mm 3 m/S 759 mmHg 64%
    12:00 -4°C° 0 mm 4 m/S 759 mmHg 63%
    13:00 -3°C° 0 mm 4 m/S 758 mmHg 62%
    14:00 -3°C° 0 mm 4 m/S 758 mmHg 65%
    15:00 -4°C° 0 mm 4 m/S 758 mmHg 68%
    16:00 -4°C° 0 mm 4 m/S 758 mmHg 71%
    17:00 -5°C° 0 mm 4 m/S 758 mmHg 74%
    18:00 -5°C° 0 mm 4 m/S 757 mmHg 77%
    19:00 -7°C° 0 mm 4 m/S 757 mmHg 80%
    20:00 -5°C° 0 mm 4 m/S 757 mmHg 80%
    21:00 -5°C° 0 mm 4 m/S 756 mmHg 80%
    22:00 -5°C° 0 mm 4 m/S 756 mmHg 79%
    23:00 -5°C° 0 mm 4 m/S 756 mmHg 78%

    Morgen, 21 Oktober, Montag

    Zeit Temperatur Niederschläge Wind Luftdruck Luftfeuchtigkeit
    00:00 -4°C° 0 mm 4 m/S 755 mmHg 77%
    01:00 -4°C° 0 mm 4 m/S 755 mmHg 75%
    02:00 -3°C° 0 mm 4 m/S 755 mmHg 75%
    03:00 -3°C° 0 mm 4 m/S 754 mmHg 74%
    04:00 -2°C° 0 mm 4 m/S 754 mmHg 73%
    05:00 -2°C° 0.3 mm 4 m/S 754 mmHg 78%
    06:00 -2°C° 0.3 mm 4 m/S 753 mmHg 84%
    07:00 -2°C° 0.3 mm 4 m/S 753 mmHg 89%
    08:00 -2°C° 0.5 mm 4 m/S 753 mmHg 88%
    09:00 -1°C° 0.5 mm 4 m/S 752 mmHg 87%
    10:00 -1°C° 0.5 mm 4 m/S 752 mmHg 86%
    11:00 -1°C° 0 mm 4 m/S 752 mmHg 85%
    12:00 0°C° 0 mm 4 m/S 752 mmHg 85%
    13:00 0°C° 0 mm 4 m/S 751 mmHg 84%
    14:00 0°C° 0 mm 4 m/S 751 mmHg 86%
    15:00 0°C° 0 mm 4 m/S 751 mmHg 87%
    16:00 0°C° 0 mm 4 m/S 751 mmHg 89%
    17:00 +1°C° 0 mm 3 m/S 750 mmHg 90%
    18:00 +1°C° 0 mm 3 m/S 750 mmHg 92%
    19:00 0°C° 0 mm 3 m/S 750 mmHg 93%
    20:00 0°C° 0 mm 3 m/S 749 mmHg 93%
    21:00 +1°C° 0 mm 3 m/S 749 mmHg 92%
    22:00 +1°C° 0 mm 3 m/S 748 mmHg 92%
    23:00 0°C° 0.1 mm 4 m/S 747 mmHg 92%

    übermorgen, 22 Oktober, Dienstag

    Zeit Temperatur Niederschläge Wind Luftdruck Luftfeuchtigkeit
    00:00 +1°C° 0.1 mm 4 m/S 746 mmHg 92%
    01:00 +1°C° 0.1 mm 4 m/S 745 mmHg 91%
    02:00 +1°C° 0.2 mm 5 m/S 744 mmHg 90%
    03:00 +2°C° 0.2 mm 5 m/S 744 mmHg 89%
    04:00 +2°C° 0.2 mm 5 m/S 743 mmHg 88%
    05:00 +2°C° 0.9 mm 6 m/S 742 mmHg 88%
    06:00 +3°C° 0.9 mm 6 m/S 741 mmHg 88%
    07:00 +3°C° 0.9 mm 6 m/S 740 mmHg 88%
    08:00 +3°C° 0 mm 6 m/S 740 mmHg 87%
    09:00 +4°C° 0 mm 6 m/S 740 mmHg 86%
    10:00 +4°C° 0 mm 6 m/S 739 mmHg 85%
    11:00 +5°C° 0 mm 5 m/S 739 mmHg 83%
    12:00 +5°C° 0 mm 5 m/S 739 mmHg 82%
    13:00 +5°C° 0 mm 5 m/S 740 mmHg 80%
    14:00 +3°C° 0 mm 5 m/S 740 mmHg 82%
    15:00 +3°C° 0 mm 5 m/S 740 mmHg 83%
    16:00 +2°C° 0 mm 5 m/S 741 mmHg 85%
    17:00 +2°C° 0 mm 5 m/S 741 mmHg 85%
    18:00 +2°C° 0 mm 5 m/S 742 mmHg 85%
    19:00 +2°C° 0 mm 5 m/S 742 mmHg 86%
    20:00 +1°C° 0 mm 4 m/S 742 mmHg 85%
    21:00 +1°C° 0 mm 4 m/S 743 mmHg 85%
    22:00 0°C° 0 mm 4 m/S 743 mmHg 84%
    23:00 0°C° 0 mm 4 m/S 743 mmHg 84%

    23 Oktober, Mittwoch

    Zeit Temperatur Niederschläge Wind Luftdruck Luftfeuchtigkeit
    00:00 +1°C° 0 mm 3 m/S 744 mmHg 84%
    01:00 0°C° 0 mm 3 m/S 744 mmHg 84%
    02:00 0°C° 0 mm 3 m/S 745 mmHg 83%
    03:00 -1°C° 0 mm 3 m/S 745 mmHg 83%
    04:00 -1°C° 0 mm 3 m/S 746 mmHg 83%
    05:00 -2°C° 0 mm 2 m/S 746 mmHg 86%
    06:00 -3°C° 0 mm 2 m/S 746 mmHg 88%
    07:00 -3°C° 0 mm 2 m/S 747 mmHg 90%
    08:00 -3°C° 0 mm 2 m/S 747 mmHg 86%
    09:00 -2°C° 0 mm 2 m/S 747 mmHg 82%
    10:00 -1°C° 0 mm 2 m/S 747 mmHg 77%
    11:00 -1°C° 0 mm 2 m/S 747 mmHg 75%
    12:00 +1°C° 0 mm 2 m/S 747 mmHg 73%
    13:00 +1°C° 0 mm 2 m/S 747 mmHg 71%
    14:00 +1°C° 0 mm 2 m/S 747 mmHg 75%
    15:00 -1°C° 0 mm 2 m/S 747 mmHg 78%
    16:00 -1°C° 0 mm 2 m/S 747 mmHg 82%
    17:00 -2°C° 0 mm 2 m/S 747 mmHg 82%
    18:00 -2°C° 0 mm 2 m/S 747 mmHg 83%
    19:00 -2°C° 0 mm 3 m/S 747 mmHg 84%
    20:00 -2°C° 0 mm 3 m/S 746 mmHg 83%
    21:00 -2°C° 0 mm 3 m/S 746 mmHg 82%
    22:00 -2°C° 0 mm 3 m/S 746 mmHg 81%
    23:00 -2°C° 0 mm 3 m/S 745 mmHg 81%

    24 Oktober, Donnerstag

    Zeit Temperatur Niederschläge Wind Luftdruck Luftfeuchtigkeit
    00:00 -2°C° 0 mm 4 m/S 745 mmHg 80%
    01:00 -2°C° 0 mm 4 m/S 744 mmHg 80%
    02:00 -1°C° 0 mm 4 m/S 744 mmHg 81%
    03:00 -1°C° 0 mm 4 m/S 743 mmHg 83%
    04:00 0°C° 0 mm 4 m/S 743 mmHg 85%
    05:00 +1°C° 0 mm 4 m/S 743 mmHg 85%
    06:00 +1°C° 0 mm 4 m/S 742 mmHg 86%
    07:00 +2°C° 0 mm 5 m/S 742 mmHg 87%
    08:00 +3°C° 0 mm 4 m/S 742 mmHg 86%
    09:00 +4°C° 0 mm 4 m/S 741 mmHg 86%
    10:00 +5°C° 0 mm 4 m/S 741 mmHg 86%
    11:00 +5°C° 0 mm 4 m/S 741 mmHg 84%
    12:00 +6°C° 0 mm 4 m/S 741 mmHg 82%
    13:00 +7°C° 0 mm 4 m/S 741 mmHg 81%
    14:00 +6°C° 0 mm 4 m/S 741 mmHg 83%
    15:00 +6°C° 0 mm 4 m/S 741 mmHg 85%
    16:00 +5°C° 0 mm 4 m/S 741 mmHg 87%
    17:00 +5°C° 0 mm 4 m/S 741 mmHg 88%
    18:00 +4°C° 0 mm 3 m/S 742 mmHg 89%
    19:00 +4°C° 0 mm 3 m/S 742 mmHg 90%
    20:00 +4°C° 0 mm 3 m/S 742 mmHg 91%
    21:00 +4°C° 0 mm 3 m/S 742 mmHg 92%
    22:00 +4°C° 0 mm 3 m/S 743 mmHg 92%
    23:00 +3°C° 0 mm 3 m/S 743 mmHg 93%

    25 Oktober, Freitag

    Zeit Temperatur Niederschläge Wind Luftdruck Luftfeuchtigkeit
    00:00 +4°C° 0 mm 2 m/S 743 mmHg 93%
    01:00 +4°C° 0 mm 2 m/S 743 mmHg 94%
    02:00 +4°C° 0 mm 2 m/S 743 mmHg 93%
    03:00 +4°C° 0 mm 2 m/S 744 mmHg 93%
    04:00 +4°C° 0 mm 2 m/S 744 mmHg 92%
    05:00 +3°C° 0 mm 2 m/S 744 mmHg 93%
    06:00 +3°C° 0 mm 2 m/S 744 mmHg 93%
    07:00 +3°C° 0 mm 2 m/S 745 mmHg 94%
    08:00 +4°C° 0 mm 2 m/S 745 mmHg 90%
    09:00 +5°C° 0 mm 2 m/S 745 mmHg 86%
    10:00 +5°C° 0 mm 3 m/S 745 mmHg 82%
    11:00 +7°C° 0 mm 3 m/S 745 mmHg 81%
    12:00 +7°C° 0 mm 3 m/S 745 mmHg 79%
    13:00 +8°C° 0 mm 3 m/S 745 mmHg 78%
    14:00 +8°C° 0 mm 3 m/S 744 mmHg 81%
    15:00 +7°C° 0 mm 3 m/S 744 mmHg 84%
    16:00 +7°C° 0 mm 2 m/S 744 mmHg 87%
    17:00 +7°C° 0 mm 3 m/S 744 mmHg 89%
    18:00 +7°C° 0 mm 3 m/S 744 mmHg 90%
    19:00 +8°C° 0 mm 3 m/S 744 mmHg 92%
    20:00 +7°C° 0 mm 3 m/S 744 mmHg 89%
    21:00 +7°C° 0 mm 3 m/S 744 mmHg 87%
    22:00 +5°C° 0 mm 4 m/S 744 mmHg 84%
    23:00 +5°C° 0 mm 3 m/S 744 mmHg 84%
    Mehr zeigen